RYR6SX LDDU-LIBD

Flight info

Callsign RYR6SX
Flight time N/A
Altitude 21000
Route AIOSA1W/11 AIOSA DCT BANAV
Aircraft B38M/M-SDE1FGHILORVWXY/HB1

Departure

Time 2026-04-29 14:13
Airport Dubrovnik Ruđer Bošković Airport (LDDU)

Arrival

Time N/A
Airport Bari Karol Wojtyła International Airport (LIBD)
Time Latitude Longitude Altitude Speed Heading
2026-04-29 13:53 42.56172 18.26107 516 ft 0 kts 208°
2026-04-29 14:04 42.56193 18.26123 516 ft 4 kts 208°
2026-04-29 14:05 42.56211 18.26138 516 ft 2 kts 232°
2026-04-29 14:05 42.56214 18.26152 516 ft 2 kts 283°
2026-04-29 14:05 42.56211 18.26166 516 ft 2 kts 294°
2026-04-29 14:05 42.56210 18.26168 516 ft 0 kts 294°
2026-04-29 14:08 42.56212 18.26162 516 ft 2 kts 298°
2026-04-29 14:09 42.56222 18.26139 516 ft 4 kts 299°
2026-04-29 14:09 42.56237 18.26100 517 ft 6 kts 298°
2026-04-29 14:09 42.56259 18.26044 517 ft 8 kts 298°
2026-04-29 14:09 42.56288 18.25970 518 ft 10 kts 298°
2026-04-29 14:10 42.56323 18.25880 519 ft 12 kts 297°
2026-04-29 14:10 42.56364 18.25774 520 ft 14 kts 298°
2026-04-29 14:10 42.56412 18.25653 521 ft 16 kts 298°
2026-04-29 14:10 42.56466 18.25517 523 ft 17 kts 298°
2026-04-29 14:11 42.56527 18.25366 524 ft 19 kts 298°
2026-04-29 14:11 42.56594 18.25199 525 ft 21 kts 298°
2026-04-29 14:11 42.56665 18.25019 527 ft 23 kts 298°
2026-04-29 14:11 42.56742 18.24824 529 ft 24 kts 298°
2026-04-29 14:12 42.56824 18.24679 531 ft 17 kts 337°
2026-04-29 14:12 42.56923 18.24731 532 ft 16 kts 58°
2026-04-29 14:12 42.56929 18.24835 530 ft 10 kts 118°
2026-04-29 14:12 42.56866 18.24991 529 ft 43 kts 118°
2026-04-29 14:13 42.56620 18.25610 525 ft 103 kts 118°
2026-04-29 14:13 42.56204 18.26654 514 ft 149 kts 118°
2026-04-29 14:13 42.55696 18.27917 998 ft 148 kts 122°
2026-04-29 14:13 42.55198 18.29153 1541 ft 157 kts 120°
2026-04-29 14:14 42.54654 18.30547 1945 ft 176 kts 121°
2026-04-29 14:14 42.54024 18.32098 2464 ft 198 kts 124°
2026-04-29 14:14 42.53000 18.33491 2898 ft 229 kts 154°
2026-04-29 14:14 42.51408 18.33716 3645 ft 236 kts 195°
2026-04-29 14:15 42.49965 18.32519 4295 ft 255 kts 228°
2026-04-29 14:15 42.48902 18.30539 5097 ft 261 kts 234°
2026-04-29 14:15 42.47827 18.28541 5977 ft 265 kts 234°
2026-04-29 14:15 42.46746 18.26517 6864 ft 267 kts 235°
2026-04-29 14:16 42.45654 18.24455 7702 ft 271 kts 235°
2026-04-29 14:16 42.44553 18.22364 8541 ft 275 kts 236°
2026-04-29 14:16 42.43443 18.20247 9379 ft 279 kts 236°
2026-04-29 14:16 42.42311 18.18085 10179 ft 283 kts 236°
2026-04-29 14:17 42.41139 18.15845 10637 ft 301 kts 236°
2026-04-29 14:17 42.39890 18.13458 10987 ft 320 kts 236°
2026-04-29 14:17 42.38587 18.10972 11467 ft 333 kts 236°
2026-04-29 14:17 42.37246 18.08415 12332 ft 334 kts 236°
2026-04-29 14:18 42.35890 18.05830 13159 ft 339 kts 237°
2026-04-29 14:18 42.34519 18.03218 14011 ft 342 kts 237°
2026-04-29 14:18 42.33584 18.01438 14537 ft 344 kts 237°
2026-04-29 14:18 42.31740 17.97931 15630 ft 347 kts 237°
2026-04-29 14:19 42.31268 17.97033 15902 ft 348 kts 237°
2026-04-29 14:19 42.30333 17.95257 16430 ft 351 kts 237°